Tracking 30995 objects as of 5-Jul-2025
HD Live streaming from Space Station
objects crossing your sky now

THORAD DELTA 1 DEB

Track THORAD DELTA 1 DEB now!
10-day predictions


NORAD ID: 8566
Int'l Code: 1974-089DD
Perigee: 1,333.2 km
Apogee: 1,468.9 km
Inclination: 101.4 °
Period: 113.6 minutes
Semi major axis: 7772 km
RCS: 0.0546 m2 (small)
Launch date: November 15, 1974
Source: United States (US)
Launch site: AIR FORCE WESTERN TEST RANGE (AFWTR)

Note: This is SATELLITE DEBRIS
Your satellite tracking list
Your tracking list is empty




NASA's NSSDC Master Catalog

Two Line Element Set (TLE):
1 08566U 74089DD  25185.18657649  .00000106  00000-0  77777-3 0  9995
2 08566 101.3962 263.0081 0087290  45.1930  12.2314 12.67063688254783
Source of the keplerian elements: AFSPC